Location: Ash Shall?l al Awwal
(24.0167°N, 32.8667°E)
Time: 03:34:14
(UTC+00:00)

Cosmos 1503 Rocket - Pass Details

Date: 02 March 2021
Orbit: 753 x 790 km, 74.0° (Epoch: 12 April)

Event Time Altitude Azimuth Distance (km) Brightness Sun altitude
Rises 17:30:53 0° 349° (N) 3,206 7.4 -23.4°
Reaches altitude 10° 17:33:16 10° 352° (N) 2,277 6.6 -23.9°
Enters shadow 17:37:41 59° 30° (NNE) 867 4.0 -24.9°
